Homer, AK

4:18 AM AKST on November 18, 2017 (GMT -0900)
Homer

Weather History for PAHO - December, 2013

Change the Weather History Date:

Tuesday, December 24, 2013

  Actual Average Record
Temperature  
Mean Temperature 13 °F -  
Max Temperature 18 °F 33 °F 46 °F (1962)
Min Temperature 8 °F 21 °F -9 °F (1942)
Degree Days  
Heating Degree Days 52    
Moisture  
Dew Point 5 °F    
Average Humidity 66    
Maximum Humidity 71    
Minimum Humidity 52    
Precipitation  
Precipitation 0.00 in - - ()
Sea Level Pressure  
Sea Level Pressure 29.90 in    
Wind  
Wind Speed 6 mph (NE)    
Max Wind Speed 12 mph    
Max Gust Speed -    
Visibility 10 miles    
Events      
Averages and records for this station are not official NWS values.
T = Trace of Precipitation, MM = Missing Value Source: NWS Daily Summary

Daily Weather History Graph

Daily Weather History Graph

Search for Another Location

Airport or City:

Trip Planner

Search our weather history database for the weather conditions in past years. The results will help you decide how hot, cold, wet, or windy it might be!

Date:

Astronomy

Dec. 24, 2013 Rise Set
Actual Time 10:05 AM AKST 4:05 PM AKST
Civil Twilight 9:09 AM AKST 5:02 PM AKST
Nautical Twilight 8:13 AM AKST 5:58 PM AKST
Astronomical Twilight 7:22 AM AKST 6:49 PM AKST
Moon 12:01 AM AKST (12/24) 12:20 PM AKST (12/24)
Length of Visible Light 7h 52m
Length of Day
5h 59m
Waning Gibbous, 57% of the Moon is Illuminated
Dec 24
Waning Gibbous
Dec 25
Last Quarter
Jan 1
New
Jan 7
First Quarter
Jan 15
Full

Hourly Weather History & Observations

Time (AKST) Temp. Windchill Dew Point Humidity Pressure Visibility Wind Dir Wind Speed Gust Speed Precip Events Conditions
12:53 AM 18.0 °F 9.8 °F 3.9 °F 54% 30.09 in 10.0 mi NNE 5.8 mph - N/A   Clear
1:53 AM 17.1 °F 6.6 °F 1.9 °F 52% 30.07 in 10.0 mi NE 8.1 mph - N/A   Clear
3:53 AM 12.0 °F 2.7 °F 1.9 °F 64% 30.06 in 10.0 mi NNE 5.8 mph - N/A   Clear
4:53 AM 12.9 °F 3.8 °F 1.9 °F 62% 30.04 in 10.0 mi NE 5.8 mph - N/A   Clear
5:53 AM 8.1 °F 1.4 °F -0.0 °F 70% 30.02 in 10.0 mi NNE 3.5 mph - N/A   Clear
6:53 AM 12.9 °F 6.9 °F 3.0 °F 65% 30.01 in 10.0 mi North 3.5 mph - N/A   Clear
7:53 AM 12.0 °F 2.7 °F 1.9 °F 64% 30.01 in 10.0 mi NNE 5.8 mph - N/A   Clear
8:53 AM 12.0 °F 5.9 °F 3.0 °F 67% 29.99 in 10.0 mi NNE 3.5 mph - N/A   Mostly Cloudy
9:53 AM 12.0 °F - 3.0 °F 67% 29.98 in 10.0 mi Calm Calm - N/A   Mostly Cloudy
10:53 AM 14.0 °F 8.2 °F 3.9 °F 64% 29.96 in 10.0 mi NNE 3.5 mph - N/A   Overcast
11:53 AM 14.0 °F 6.5 °F 5.0 °F 67% 29.94 in 10.0 mi NNE 4.6 mph - N/A   Overcast
12:53 PM 16.0 °F - 6.1 °F 65% 29.91 in 10.0 mi Calm Calm - N/A   Mostly Cloudy
1:53 PM 17.1 °F - 6.1 °F 62% 29.88 in 10.0 mi Calm Calm - N/A   Overcast
2:53 PM 18.0 °F 9.8 °F 9.0 °F 68% 29.84 in 10.0 mi East 5.8 mph - N/A   Overcast
3:53 PM 17.1 °F 4.3 °F 9.0 °F 71% 29.83 in 10.0 mi ENE 11.5 mph - N/A   Overcast
4:53 PM 17.1 °F 5.0 °F 9.0 °F 71% 29.81 in 10.0 mi ENE 10.4 mph - N/A   Overcast
5:53 PM 17.1 °F 5.0 °F 8.1 °F 68% 29.78 in 10.0 mi ENE 10.4 mph - N/A   Scattered Clouds
6:53 PM 16.0 °F 5.3 °F 7.0 °F 68% 29.78 in 10.0 mi NNE 8.1 mph - N/A   Clear
7:53 PM 15.1 °F 3.3 °F 6.1 °F 68% 29.77 in 10.0 mi NE 9.2 mph - N/A   Scattered Clouds
8:53 PM 14.0 °F 2.9 °F 6.1 °F 71% 29.76 in 10.0 mi NE 8.1 mph - N/A   Clear
9:53 PM 12.9 °F 2.6 °F 5.0 °F 71% 29.75 in 10.0 mi NNE 6.9 mph - N/A   Clear
10:53 PM 14.0 °F 3.9 °F 5.0 °F 67% 29.75 in 10.0 mi NE 6.9 mph - N/A   Clear
11:53 PM 14.0 °F 2.9 °F 3.9 °F 64% 29.74 in 10.0 mi NNE 8.1 mph - N/A   Clear